Notices

What's New in latest Release from April 7th, 2021:

- Updated Glossary, including Speed of Maximum Gust, and Total Hourly Precipitation

- Updated national and regional climate services offices contacts and prices information

- Addition of station inventory lists for 1981-2010, 1971-2000, and 1961-1990 Normals.

If you haven't already, please take our survey and provide feedback about our website: https://eccc.sondage-survey.ca/f/LanguageSelection.aspx?s=442ca660-fcf1-47c0-95a9-59707d6fd709

Hourly Data Report for April 15, 2017

MIRAMICHI RCS
NEW BRUNSWICK

47°00'34.000" N
65°27'54.000" W
33.00 m
8100989
71744
ACQ

Download Data

Hourly Data (April 2017)
Hourly Data Report for April 15, 2017
TIME
LST
Temp Definition
°C
Dew Point Definition
°C
Rel Hum Definition
%
Precip. Amount Definition
mm

Wind Dir Definition
10's deg

Wind Spd Definition
km/h
Visibility Definition
km
Stn Press Definition
kPa
Hmdx Definition


Wind Chill Definition


Weather Definition


00:00 3.2 -4.5 57 0.0 28 8   101.73     LegendNANA
01:00 2.3 -4.7 59 0.0 26 9   101.68     LegendNANA
02:00 1.7 -4.9 62 0.0 26 10   101.65     LegendNANA
03:00 0.7 -4.9 66 0.0 26 10   101.65     LegendNANA
04:00 0.0 -4.9 69 0.0 26 9   101.66   -3 LegendNANA
05:00 -0.3 -4.8 71 0.0 26 10   101.71   -4 LegendNANA
06:00 0.6 -4.8 67 0.0 25 11   101.76     LegendNANA
07:00 2.0 -4.7 61 0.0 26 9   101.80     LegendNANA
08:00 3.6 -4.2 57 0.0 24 12   101.82     LegendNANA
09:00 5.8 -5.2 45 0.0 24 13   101.78     LegendNANA
10:00 7.4 -6.4 37 0.0 27 15   101.77     LegendNANA
11:00 8.8 -5.8 35 0.0 25 12   101.71     LegendNANA
12:00 10.8 -6.3 29 0.0 25 12   101.59     LegendNANA
13:00 11.8 -4.2 32 0.0 29 21   101.50     LegendNANA
14:00 12.5 -3.7 32 0.0 30 14   101.42     LegendNANA
15:00 13.6 -3.3 31 0.0 29 7   101.31     LegendNANA
16:00 13.8 -5.2 26 0.0 27 12   101.22     LegendNANA
17:00 13.9 -4.2 28 0.0 26 13   101.14     LegendNANA
18:00 12.8 -2.0 36 0.0 24 4   101.09     LegendNANA
19:00 10.9 -0.3 46 0.0 16 6   101.02     LegendNANA
20:00 8.9 -1.3 49 0.0 15 3   100.97     LegendNANA
21:00 7.0 0.1 61 0.0 11 2   100.94     LegendNANA
22:00 5.0 -1.8 61 0.0 0 1   100.84     LegendNANA
23:00 6.7 -3.5 48 0.0 25 8   100.76     LegendNANA

Notes on Data Quality.

Legend

  • E = Estimated
  • M = Missing
  • NA = Not Available*
  • [empty] = Indicates an unobserved value
Date modified: